Regional Weather Roundup
Issued by NWS Charleston, SC

Current Version | Previous Version | Graphics & Text | Print | Product List | Glossary Off
Versions: 1 2 3 4 5 6 7 8 9 10 11 12 13 14 15 16 17 18 19 20 21 22 23 24 25 26 27 28 29 30 31 32 33 34 35 36 37 38 39 40 41 42 43 44 45 46 47 48 49 50
000 ASUS42 KCHS 240127 RWRCHS REGIONAL WEATHER ROUNDUP NATIONAL WEATHER SERVICE CHARLESTON SC 900 PM EDT WED AUG 23 2017 NOTE: "FAIR" INDICATES FEW OR NO CLOUDS BELOW 12,000 FEET WITH NO SIGNIFICANT WEATHER AND/OR OBSTRUCTIONS TO VISIBILITY. NOT ALL STATIONS ARE QUALITY CONTROLLED. USE DATA WITH CAUTION... ESPECIALLY DEWPOINT OBSERVATIONS. SCZ027-030-031-034>040-042>050-240200- ...SOUTHEAST SOUTH CAROLINA... CITY SKY/WX TMP DP RH WIND PRES REMARKS N CHARLESTON CLOUDY 82 77 84 S8 29.83S HX 90 WATERFRONT PRK N/A 85 79 82 S7 29.68R HX 98 JOHNS ISLAND FAIR 84 77 79 S10 29.83F HX 94 PINOPOLIS N/A 84 77 79 S7 29.76R HX 94 MONCKS CORNER FAIR 81 75 83 S6 29.83S SUMMERVILLE FAIR 79 77 94 CALM 29.85R BEAUFORT MCAS PTCLDY 85 78 80 S6 29.84R HX 96 BEAUFORT ARPT FAIR 82 77 83 S6 29.84S HX 91 HILTON HEAD IS MOCLDY 86 77 74 S9 29.86R HX 97 WALTERBORO PTCLDY 81 77 89 S6 29.85R ALLENDALE NOT AVBL ...SOUTHERN MIDLANDS AND PEE DEE... CITY SKY/WX TMP DP RH WIND PRES REMARKS GEORGETOWN FAIR 79 79 100 S6 29.84R KINGSTREE FAIR 79 77 94 SE5 29.81R ORANGEBURG CLEAR 83 74 74 S6 29.82R BARNWELL FAIR 86 75 70 CALM 29.83R HX 95 AIKEN FAIR 79 70 73 SW6 29.87S MANNING TSTM 77 64 65 SW12 29.82R COLUMBIA PTCLDY 83 70 64 NE3 29.81R SUMTER MOCLDY 83 73 70 W3 29.79R FLORENCE CLOUDY 76 72 87 E6 29.82S MYRTLE BEACH CLEAR 84 77 79 SW17 29.82F HX 94 N MYRTLE BEACH CLOUDY 84 77 79 SW17 29.83R HX 94 $$ GAZ063-065-086>088-099>101-113>116-118-119-134>141-150-240200- ...SOUTHEAST GEORGIA... CITY SKY/WX TMP DP RH WIND PRES REMARKS SAVANNAH ARPT CLOUDY 79 77 94 S7 29.85R HUNTER AAF CLOUDY 82 76 82 S6 29.83R FORT STEWART MOCLDY 83 75 76 S5 29.83S HX 91 STATESBORO MOCLDY 81 69 67 S3 29.85R SYLVANIA PTCLDY 80 75 83 CALM 29.85R CLAXTON FAIR 78 77 96 CALM 29.85S ...CSRA...CENTRAL AND FAR SOUTHEAST GEORGIA... CITY SKY/WX TMP DP RH WIND PRES REMARKS THOMSON CLEAR 80 72 78 CALM 29.90R AUGUSTA-BUSH CLEAR 83 76 79 W3 29.82R HX 91 AUGUSTA-DANIEL CLEAR 88 69 53 W3 29.85R HX 92 SWAINSBORO FAIR 84 73 70 CALM 29.86R HX 91 VIDALIA PTCLDY 82 75 78 S3 29.85R EASTMAN FAIR 84 68 59 CALM 29.88R HAZLEHURST FAIR 84 68 57 SW5 29.85R ALMA CLEAR 84 76 76 S6 29.85S HX 93 WAYCROSS CLEAR 82 77 85 S5 29.86S JESUP FAIR 82 75 78 S3 29.86S BAXLEY FAIR 79 79 100 CALM 29.85S BRUNSWICK PTCLDY 82 75 78 S6 29.88S SAINT SIMONS PTCLDY 85 77 77 S9 29.87R HX 95 $$ SCZ027-028-034-036>038-045-046-048>050-GAZ119-141-240200- ...LAKE AND SUPPLEMENTAL COASTAL OBSERVATIONS... STATION/POSITION TIME TEMP WIND PRES WAVE SWELL AIR SEA DIR/SP/G HT/PER HT/PER/DIR (UTC) (F) (DEG/KT/KT) (MB) (FT/S) (FT/S/D) WINYAH BAY 0045 83 210/ 10 1010.0S LAKE MURRAY 0020 86 10/ 2/ 6 1008.5 ACE BASIN NERRS 0045 84 CALM 1011.0R FORT PULASKI 0100 84 87 210/ 8/ 14 1011.4 SAPELO ISLAND 0100 84 180/ 10 1011.0 $$ ANZ835-935-AMZ111-154-330-350-352-354-370-450-454-472-240200- ...C-MAN AND BUOY OBSERVATIONS... STATION/POSITION TIME TEMP WIND PRES WAVE SWELL AIR SEA DIR/SP/G HT/PER HT/PER/DIR (UTC) (F) (DEG/KT/KT) (MB) (FT/S) (FT/S/D) BUOY 41004 0110 84 85 210/ 17/ 21 1010.1 BUOY 41008 0050 85 86 160/ 16/ 19 1010.7R 3/ 9 3/100/ 9 FOLLY BEACH CMAN 0100 85 200/ 16/ 18 1011.0F CAPERS NEARSHORE 0108 82 86 210/ 16/ 21 1009.8F FRIPP NEARSHORE 0108 85 200/ 17/ 21 1010.0R STATION/POSITION TIME TEMP WIND PRES WAVE SWELL AIR SEA DIR/SP/G HT/PER HT/PER/DIR (UTC) (F) (DEG/KT/KT) (MB) (FT/S) (FT/S/D) 5E ST. MARYS GA 0100 85 N/A 3/ 8 FRYING PAN BUOY 0110 84 84 220/ 16/ 19 1010.7 BUOY 41025 0050 83 84 230/ 12/ 14 1009.8R 4/ 5 2/120/ 9 CAPE LOOKOUT NC 0100 82 220/ 9/ 12 1010.7R BUOY 41002 0050 83 85 200/ 8/ 10 1012.6R 3/ 9 3/110/ 9 BUOY 41010 0110 85 85 170/ 12/ 14 1012.4 ST AUGUSTINE FL 0100 83 85 150/ 15/ 17 1012.3R $$

USA.gov is the U.S. government's official web portal to all federal, state and local government web resources and services.